Time,TemperatureF,DewpointF,PressureIn,WindDirection,WindDirectionDegrees,WindSpeedMPH,WindSpeedGustMPH,Humidity,HourlyPrecipIn,Conditions,Clouds,dailyrainin,SoftwareType,DateUTC
2013-08-22 08:27:00,70.5,64.8,30.15,South,180,0.0,0.0,82,0.00,SCT,,0.00,WeatherDisplay:10.37,2013-08-22 12:27:00,
2013-08-22 08:28:00,70.9,65.1,30.15,South,180,0.0,0.0,82,0.00,SCT,,0.00,WeatherDisplay:10.37,2013-08-22 12:28:00,
2013-08-22 08:29:00,70.9,65.1,30.15,SW,225,1.2,0.0,82,0.00,SCT,,0.00,WeatherDisplay:10.37,2013-08-22 12:29:00,
2013-08-22 08:34:00,71.1,65.3,30.15,South,180,2.3,2.3,82,0.00,,,0.00,WeatherDisplay:10.37,2013-08-22 12:34:00,
2013-08-22 08:39:00,71.4,65.6,30.15,SW,225,2.3,2.3,82,0.00,,,0.00,WeatherDisplay:10.37,2013-08-22 12:39:00,
2013-08-22 08:45:00,71.4,65.6,30.15,South,180,2.3,2.3,82,0.00,,,0.00,WeatherDisplay:10.37,2013-08-22 12:45:00,
2013-08-22 08:50:00,71.8,66.0,30.15,SW,225,2.6,2.6,82,0.00,BKN,,0.00,WeatherDisplay:10.37,2013-08-22 12:50:00,
2013-08-22 08:55:00,72.0,66.2,30.15,SW,225,2.6,2.9,82,0.00,BKN,,0.00,WeatherDisplay:10.37,2013-08-22 12:55:00,
2013-08-22 09:00:00,71.8,66.0,30.15,SSW,202,3.5,3.5,82,0.00,BKN,,0.00,WeatherDisplay:10.37,2013-08-22 13:00:00,
2013-08-22 09:01:00,71.8,66.0,30.15,SW,225,3.5,3.5,82,0.00,SCT,,0.00,WeatherDisplay:10.37,2013-08-22 13:01:00,
2013-08-22 09:06:00,71.8,66.0,30.12,SW,225,2.9,2.9,82,0.00,SCT,,0.00,WeatherDisplay:10.37,2013-08-22 13:06:00,
2013-08-22 09:11:00,72.0,66.2,30.12,WSW,248,3.5,3.5,82,0.00,SCT,,0.00,WeatherDisplay:10.37,2013-08-22 13:11:00,
2013-08-22 09:17:00,72.3,66.5,30.12,SSW,202,2.3,2.3,82,0.00,SCT,,0.00,WeatherDisplay:10.37,2013-08-22 13:17:00,
2013-08-22 09:22:00,72.3,66.5,30.15,WSW,248,3.1,3.1,82,0.00,SCT,,0.00,WeatherDisplay:10.37,2013-08-22 13:22:00,
2013-08-22 09:27:00,72.7,66.9,30.15,SSW,202,2.3,2.3,82,0.00,SCT,,0.00,WeatherDisplay:10.37,2013-08-22 13:27:00,
2013-08-22 09:32:00,72.1,66.3,30.15,SW,224,2.0,0.0,82,0.00,SCT,SCT,0.00,WeatherDisplay:10.37,2013-08-22 13:32:00,
2013-08-22 09:37:00,73.2,67.4,30.15,West,270,1.6,1.6,82,0.00,SCT,,0.00,WeatherDisplay:10.37,2013-08-22 13:37:00,
2013-08-22 09:42:00,73.8,67.9,30.15,SW,225,2.3,2.3,82,0.00,SCT,,0.00,WeatherDisplay:10.37,2013-08-22 13:42:00,
2013-08-22 09:48:00,73.8,72.2,30.12,West,270,2.6,2.6,95,0.00,SCT,,0.00,WeatherDisplay:10.37,2013-08-22 13:48:00,
2013-08-22 09:53:00,74.1,72.3,30.12,SSW,202,2.4,2.4,94,0.00,SCT,,0.00,WeatherDisplay:10.37,2013-08-22 13:53:00,
2013-08-22 09:58:00,74.5,71.4,30.12,SW,225,2.9,2.9,90,0.00,SCT,,0.00,WeatherDisplay:10.37,2013-08-22 13:58:00,
2013-08-22 10:03:00,74.1,70.7,30.12,SW,225,3.6,3.6,89,0.00,SCT,,0.00,WeatherDisplay:10.37,2013-08-22 14:03:00,
2013-08-22 10:08:00,75.0,72.2,30.12,SSW,202,4.6,4.6,91,0.00,SCT,,0.00,WeatherDisplay:10.37,2013-08-22 14:08:00,
2013-08-22 10:13:00,75.4,71.9,30.12,South,180,2.6,2.9,89,0.00,SCT,,0.00,WeatherDisplay:10.37,2013-08-22 14:13:00,
2013-08-22 10:18:00,75.9,72.4,30.12,South,180,2.6,2.9,89,0.00,SCT,,0.00,WeatherDisplay:10.37,2013-08-22 14:18:00,
2013-08-22 10:23:00,77.0,73.2,30.12,South,180,4.6,4.6,88,0.00,SCT,,0.00,WeatherDisplay:10.37,2013-08-22 14:23:00,
2013-08-22 10:28:00,77.7,73.5,30.12,South,180,2.3,2.3,87,0.00,SCT,,0.00,WeatherDisplay:10.37,2013-08-22 14:28:00,
2013-08-22 10:33:00,77.7,71.4,30.12,West,270,3.5,3.5,81,0.00,SCT,,0.00,WeatherDisplay:10.37,2013-08-22 14:33:00,
2013-08-22 10:38:00,79.0,73.7,30.12,SW,225,1.2,1.4,84,0.00,SCT,,0.00,WeatherDisplay:10.37,2013-08-22 14:38:00,
2013-08-22 10:43:00,79.3,71.9,30.12,South,180,3.5,3.5,78,0.00,SCT,,0.00,WeatherDisplay:10.37,2013-08-22 14:43:00,
2013-08-22 10:48:00,80.1,72.6,30.12,South,180,2.9,2.9,78,0.00,SCT,,0.00,WeatherDisplay:10.37,2013-08-22 14:48:00,
2013-08-22 10:53:00,80.4,72.2,30.12,South,180,4.0,4.0,76,0.00,SCT,,0.00,WeatherDisplay:10.37,2013-08-22 14:53:00,
2013-08-22 10:58:00,81.1,72.5,30.12,SSW,202,3.8,3.8,75,0.00,SCT,,0.00,WeatherDisplay:10.37,2013-08-22 14:58:00,
2013-08-22 11:03:00,81.7,73.0,30.12,SW,225,4.6,4.6,75,0.00,SCT,,0.00,WeatherDisplay:10.37,2013-08-22 15:03:00,
2013-08-22 11:08:00,82.4,73.3,30.12,South,180,3.5,3.5,74,0.00,SCT,,0.00,WeatherDisplay:10.37,2013-08-22 15:08:00,
2013-08-22 11:13:00,81.9,72.8,30.12,SSW,202,4.6,4.6,74,0.00,SCT,,0.00,WeatherDisplay:10.37,2013-08-22 15:13:00,
2013-08-22 11:18:00,82.8,73.6,30.12,South,180,3.5,3.5,74,0.00,SCT,,0.00,WeatherDisplay:10.37,2013-08-22 15:18:00,
2013-08-22 11:19:00,90.9,78.5,30.06,SW,236,2.0,5.0,67,0.00,SCT,SCT,0.00,WeatherDisplay:10.37,2013-08-22 15:19:00,
2013-08-22 11:20:00,90.9,78.5,30.06,SW,236,2.0,0.0,67,0.00,SCT,SCT,0.00,WeatherDisplay:10.37,2013-08-22 15:20:00,
2013-08-22 11:21:00,90.9,78.5,30.06,SW,236,2.0,0.0,67,0.00,SCT,SCT,0.00,WeatherDisplay:10.37,2013-08-22 15:21:00,
2013-08-22 11:22:00,90.9,78.5,30.06,SW,236,2.0,0.0,67,0.00,SCT,SCT,0.00,WeatherDisplay:10.37,2013-08-22 15:22:00,
2013-08-22 11:23:00,83.5,74.3,30.12,SW,225,8.1,8.1,74,0.00,SCT,,0.00,WeatherDisplay:10.37,2013-08-22 15:23:00,
2013-08-22 11:24:00,90.9,78.5,30.06,SW,236,2.0,0.0,67,0.00,SCT,SCT,0.00,WeatherDisplay:10.37,2013-08-22 15:24:00,
2013-08-22 11:25:00,90.9,78.5,30.06,SW,236,2.0,0.0,67,0.00,SCT,SCT,0.00,WeatherDisplay:10.37,2013-08-22 15:25:00,
2013-08-22 11:26:00,90.9,78.5,30.06,SW,236,2.0,0.0,67,0.00,SCT,SCT,0.00,WeatherDisplay:10.37,2013-08-22 15:26:00,
2013-08-22 11:27:00,90.9,78.5,30.06,SW,236,2.0,0.0,67,0.00,SCT,SCT,0.00,WeatherDisplay:10.37,2013-08-22 15:27:00,
2013-08-22 11:28:00,84.0,74.8,30.12,SSW,202,5.8,5.8,74,0.00,SCT,,0.00,WeatherDisplay:10.37,2013-08-22 15:28:00,
2013-08-22 11:29:00,90.9,78.5,30.06,SW,236,2.0,0.0,67,0.00,SCT,SCT,0.00,WeatherDisplay:10.37,2013-08-22 15:29:00,
2013-08-22 11:30:00,90.9,78.5,30.06,SW,236,2.0,0.0,67,0.00,SCT,SCT,0.00,WeatherDisplay:10.37,2013-08-22 15:30:00,
2013-08-22 11:31:00,90.9,78.5,30.06,SW,236,2.0,0.0,67,0.00,SCT,SCT,0.00,WeatherDisplay:10.37,2013-08-22 15:31:00,
2013-08-22 11:32:00,90.9,78.5,30.06,SW,236,2.0,0.0,67,0.00,SCT,SCT,0.00,WeatherDisplay:10.37,2013-08-22 15:32:00,
2013-08-22 11:33:00,82.2,72.3,30.12,SW,225,4.6,4.6,72,0.00,SCT,,0.00,WeatherDisplay:10.37,2013-08-22 15:33:00,
2013-08-22 11:38:00,83.7,73.3,30.12,West,270,3.5,3.5,71,0.00,SCT,,0.00,WeatherDisplay:10.37,2013-08-22 15:38:00,
2013-08-22 11:43:00,85.1,74.6,30.12,SW,225,3.5,3.5,71,0.00,SCT,,0.00,WeatherDisplay:10.37,2013-08-22 15:43:00,
2013-08-22 11:48:00,85.6,75.2,30.12,SW,225,5.8,5.8,71,0.00,SCT,,0.00,WeatherDisplay:10.37,2013-08-22 15:48:00,
2013-08-22 11:49:00,92.8,32.8,30.06,SW,223,0.0,4.0,12,0.00,SCT,SCT,0.00,WeatherDisplay:10.37,2013-08-22 15:49:00,
2013-08-22 11:50:00,92.8,32.8,30.06,SW,223,0.0,0.0,12,0.00,SCT,SCT,0.00,WeatherDisplay:10.37,2013-08-22 15:50:00,
2013-08-22 11:51:00,92.8,32.8,30.06,SW,223,0.0,0.0,12,0.00,SCT,SCT,0.00,WeatherDisplay:10.37,2013-08-22 15:51:00,
2013-08-22 11:52:00,92.8,32.8,30.06,SW,223,0.0,0.0,12,0.00,SCT,SCT,0.00,WeatherDisplay:10.37,2013-08-22 15:52:00,
2013-08-22 11:53:00,84.7,73.0,30.12,West,270,5.8,5.8,68,0.00,SCT,,0.00,WeatherDisplay:10.37,2013-08-22 15:53:00,
2013-08-22 11:54:00,92.8,32.8,30.06,SW,223,0.0,0.0,12,0.00,SCT,SCT,0.00,WeatherDisplay:10.37,2013-08-22 15:54:00,
2013-08-22 11:55:00,92.8,32.8,30.06,SW,223,0.0,0.0,12,0.00,SCT,SCT,0.00,WeatherDisplay:10.37,2013-08-22 15:55:00,
2013-08-22 11:56:00,92.8,32.8,30.06,SW,223,0.0,0.0,12,0.00,SCT,SCT,0.00,WeatherDisplay:10.37,2013-08-22 15:56:00,
2013-08-22 11:57:00,92.8,32.8,30.06,SW,223,0.0,0.0,12,0.00,SCT,SCT,0.00,WeatherDisplay:10.37,2013-08-22 15:57:00,
2013-08-22 11:58:00,85.6,73.9,30.12,SSW,202,5.8,5.8,68,0.00,SCT,,0.00,WeatherDisplay:10.37,2013-08-22 15:58:00,
2013-08-22 11:59:00,92.8,32.8,30.06,SW,223,0.0,0.0,12,0.00,SCT,SCT,0.00,WeatherDisplay:10.37,2013-08-22 15:59:00,
2013-08-22 12:00:00,92.8,32.8,30.06,SW,223,0.0,0.0,12,0.00,SCT,SCT,0.00,WeatherDisplay:10.37,2013-08-22 16:00:00,
2013-08-22 12:01:00,92.8,32.8,30.06,SW,223,0.0,0.0,12,0.00,SCT,SCT,0.00,WeatherDisplay:10.37,2013-08-22 16:01:00,
2013-08-22 12:02:00,92.8,32.8,30.06,SW,223,0.0,0.0,12,0.00,SCT,SCT,0.00,WeatherDisplay:10.37,2013-08-22 16:02:00,
2013-08-22 12:03:00,85.8,74.0,30.12,WSW,248,3.5,3.5,68,0.00,SCT,,0.00,WeatherDisplay:10.37,2013-08-22 16:03:00,
2013-08-22 12:08:00,86.0,74.2,30.12,SW,225,3.5,3.5,68,0.00,SCT,,0.00,WeatherDisplay:10.37,2013-08-22 16:08:00,
2013-08-22 12:13:00,85.8,74.0,30.12,WSW,248,4.6,4.6,68,0.00,SCT,,0.00,WeatherDisplay:10.37,2013-08-22 16:13:00,
2013-08-22 12:18:00,85.5,73.7,30.12,SW,225,6.2,6.2,68,0.00,SCT,,0.00,WeatherDisplay:10.37,2013-08-22 16:18:00,
2013-08-22 12:23:00,87.1,75.2,30.12,South,180,5.8,5.8,68,0.00,SCT,,0.00,WeatherDisplay:10.37,2013-08-22 16:23:00,
2013-08-22 12:28:00,87.8,75.9,30.12,WSW,248,3.6,3.6,68,0.00,SCT,,0.00,WeatherDisplay:10.37,2013-08-22 16:28:00,
2013-08-22 12:33:00,84.8,73.0,30.15,WSW,255,5.0,0.0,68,0.00,BKN,BKN,0.00,WeatherDisplay:10.37,2013-08-22 16:33:00,
2013-08-22 12:38:00,86.7,74.9,30.15,West,270,2.3,2.3,68,0.00,BKN,,0.00,WeatherDisplay:10.37,2013-08-22 16:38:00,
2013-08-22 12:43:00,88.2,76.3,30.15,SSW,202,2.6,3.3,68,0.00,BKN,,0.00,WeatherDisplay:10.37,2013-08-22 16:43:00,
2013-08-22 12:48:00,87.1,75.2,30.12,WNW,292,4.6,4.6,68,0.00,BKN,,0.00,WeatherDisplay:10.37,2013-08-22 16:48:00,
2013-08-22 12:53:00,88.2,76.3,30.12,West,270,4.6,4.6,68,0.00,BKN,,0.00,WeatherDisplay:10.37,2013-08-22 16:53:00,
2013-08-22 12:58:00,88.5,76.6,30.12,West,270,4.6,4.6,68,0.00,BKN,,0.00,WeatherDisplay:10.37,2013-08-22 16:58:00,
2013-08-22 13:03:00,87.6,75.7,30.12,West,270,2.0,0.0,68,0.00,BKN,BKN,0.00,WeatherDisplay:10.37,2013-08-22 17:03:00,
2013-08-22 13:08:00,88.2,76.3,30.12,West,270,3.5,3.5,68,0.00,BKN,,0.00,WeatherDisplay:10.37,2013-08-22 17:08:00,
2013-08-22 13:13:00,90.1,77.7,30.12,South,180,3.6,3.6,67,0.00,BKN,,0.00,WeatherDisplay:10.37,2013-08-22 17:13:00,
2013-08-22 13:18:00,88.2,76.3,30.09,SW,225,5.9,5.9,68,0.00,SCT,,0.00,WeatherDisplay:10.37,2013-08-22 17:18:00,
2013-08-22 13:23:00,88.0,76.1,30.09,WNW,292,4.6,4.6,68,0.00,SCT,,0.00,WeatherDisplay:10.37,2013-08-22 17:23:00,
2013-08-22 13:28:00,89.6,77.2,30.09,West,270,4.6,4.6,67,0.00,SCT,,0.00,WeatherDisplay:10.37,2013-08-22 17:28:00,
2013-08-22 13:33:00,88.3,76.4,30.12,SW,225,5.8,5.8,68,0.00,SCT,,0.00,WeatherDisplay:10.37,2013-08-22 17:33:00,
2013-08-22 13:38:00,89.2,77.3,30.12,SW,225,4.6,4.6,68,0.00,SCT,,0.00,WeatherDisplay:10.37,2013-08-22 17:38:00,
2013-08-22 13:43:00,89.6,77.2,30.12,SSW,202,8.1,8.1,67,0.00,SCT,,0.00,WeatherDisplay:10.37,2013-08-22 17:43:00,
2013-08-22 13:48:00,90.0,77.5,30.12,SW,225,3.5,3.5,67,0.00,SCT,,0.00,WeatherDisplay:10.37,2013-08-22 17:48:00,
2013-08-22 13:53:00,89.4,77.5,30.12,SW,225,5.8,5.8,68,0.00,SCT,,0.00,WeatherDisplay:10.37,2013-08-22 17:53:00,
2013-08-22 13:58:00,89.1,77.1,30.12,West,270,5.8,5.8,68,0.00,SCT,,0.00,WeatherDisplay:10.37,2013-08-22 17:58:00,
2013-08-22 14:03:00,89.6,77.2,30.15,WSW,249,2.0,0.0,67,0.00,SCT,SCT,0.00,WeatherDisplay:10.37,2013-08-22 18:03:00,
2013-08-22 14:08:00,89.2,77.3,30.15,WSW,248,3.5,3.5,68,0.00,SCT,,0.00,WeatherDisplay:10.37,2013-08-22 18:08:00,
2013-08-22 14:13:00,89.8,77.4,30.15,SW,225,3.8,3.8,67,0.00,SCT,,0.00,WeatherDisplay:10.37,2013-08-22 18:13:00,
2013-08-22 14:18:00,91.2,78.7,30.12,West,270,3.5,3.5,67,0.00,SCT,,0.00,WeatherDisplay:10.37,2013-08-22 18:18:00,
2013-08-22 14:23:00,89.2,77.3,30.12,West,270,5.8,5.8,68,0.00,SCT,,0.00,WeatherDisplay:10.37,2013-08-22 18:23:00,
2013-08-22 14:28:00,88.5,76.6,30.12,West,270,4.6,4.6,68,0.00,SCT,,0.00,WeatherDisplay:10.37,2013-08-22 18:28:00,
2013-08-22 14:33:00,88.3,76.4,30.12,NNW,338,1.6,1.6,68,0.00,SCT,,0.00,WeatherDisplay:10.37,2013-08-22 18:33:00,
2013-08-22 14:38:00,89.6,77.2,30.12,North,0,5.8,5.8,67,0.00,SCT,,0.00,WeatherDisplay:10.37,2013-08-22 18:38:00,
2013-08-22 14:43:00,88.7,76.8,30.12,NE,45,3.5,3.5,68,0.00,SCT,,0.00,WeatherDisplay:10.37,2013-08-22 18:43:00,
2013-08-22 14:48:00,88.2,76.3,30.15,South,180,4.6,4.6,68,0.00,SCT,,0.00,WeatherDisplay:10.37,2013-08-22 18:48:00,
2013-08-22 14:53:00,88.5,76.6,30.15,NE,45,4.6,4.6,68,0.00,SCT,,0.00,WeatherDisplay:10.37,2013-08-22 18:53:00,
2013-08-22 14:58:00,87.8,75.9,30.15,NNW,338,3.5,3.5,68,0.00,SCT,,0.00,WeatherDisplay:10.37,2013-08-22 18:58:00,
2013-08-22 15:03:00,88.6,76.7,30.13,NNW,329,2.0,0.0,68,0.00,SCT,SCT,0.00,WeatherDisplay:10.37,2013-08-22 19:03:00,
2013-08-22 15:08:00,89.8,77.4,30.12,SSW,202,5.9,5.9,67,0.00,SCT,,0.00,WeatherDisplay:10.37,2013-08-22 19:08:00,
2013-08-22 15:13:00,89.6,77.2,30.12,West,270,3.5,3.5,67,0.00,SCT,,0.00,WeatherDisplay:10.37,2013-08-22 19:13:00,
2013-08-22 15:18:00,91.2,78.7,30.12,SW,225,4.6,4.6,67,0.00,FEW,,0.00,WeatherDisplay:10.37,2013-08-22 19:18:00,
2013-08-22 15:23:00,90.0,77.5,30.12,West,270,4.7,4.7,67,0.00,FEW,,0.00,WeatherDisplay:10.37,2013-08-22 19:23:00,
2013-08-22 15:28:00,92.1,79.6,30.12,SW,225,2.3,2.3,67,0.00,FEW,,0.00,WeatherDisplay:10.37,2013-08-22 19:28:00,
2013-08-22 15:33:00,91.6,79.1,30.09,SSW,202,4.6,4.6,67,0.00,FEW,,0.00,WeatherDisplay:10.37,2013-08-22 19:33:00,
2013-08-22 15:38:00,92.5,79.9,30.09,SW,225,5.8,5.8,67,0.00,FEW,,0.00,WeatherDisplay:10.37,2013-08-22 19:38:00,
2013-08-22 15:43:00,91.9,79.4,30.09,SW,225,3.5,3.5,67,0.00,FEW,,0.00,WeatherDisplay:10.37,2013-08-22 19:43:00,
2013-08-22 15:48:00,91.9,79.4,30.06,SW,225,3.5,3.5,67,0.00,FEW,,0.00,WeatherDisplay:10.37,2013-08-22 19:48:00,
2013-08-22 16:28:00,90.7,78.2,30.06,SW,225,5.4,5.4,67,0.00,CLR,,0.00,WeatherDisplay:10.37,2013-08-22 20:28:00,
2013-08-22 16:33:00,91.2,78.7,30.06,West,270,3.5,3.5,67,0.00,SCT,,0.00,WeatherDisplay:10.37,2013-08-22 20:33:00,
2013-08-22 16:38:00,91.0,78.6,30.06,West,270,3.5,3.5,67,0.00,SCT,,0.00,WeatherDisplay:10.37,2013-08-22 20:38:00,
2013-08-22 17:03:00,92.8,32.8,30.06,West,270,4.9,0.0,12,0.00,CLR,,0.00,WeatherDisplay:10.37,2013-08-22 21:03:00,
2013-08-22 17:08:00,91.4,78.9,30.06,West,270,3.5,3.5,67,0.00,SCT,,0.00,WeatherDisplay:10.37,2013-08-22 21:08:00,
2013-08-22 17:13:00,90.9,78.4,30.06,WSW,248,3.5,3.5,67,0.00,SCT,,0.00,WeatherDisplay:10.37,2013-08-22 21:13:00,
2013-08-22 17:18:00,91.2,78.7,30.06,West,270,1.2,1.2,67,0.00,FEW,,0.00,WeatherDisplay:10.37,2013-08-22 21:18:00,
2013-08-22 17:23:00,90.3,77.9,30.06,West,270,2.3,2.3,67,0.00,FEW,,0.00,WeatherDisplay:10.37,2013-08-22 21:23:00,
2013-08-22 17:28:00,90.5,78.0,30.06,NE,45,2.4,2.4,67,0.00,FEW,,0.00,WeatherDisplay:10.37,2013-08-22 21:28:00,
2013-08-22 17:33:00,90.9,78.4,30.06,SW,225,2.3,2.3,67,0.00,FEW,,0.00,WeatherDisplay:10.37,2013-08-22 21:33:00,
2013-08-22 17:38:00,91.8,79.2,30.06,NNW,338,1.2,0.0,67,0.00,FEW,,0.00,WeatherDisplay:10.37,2013-08-22 21:38:00,
2013-08-22 17:43:00,91.9,79.4,30.06,West,270,1.2,0.0,67,0.00,FEW,,0.00,WeatherDisplay:10.37,2013-08-22 21:43:00,
2013-08-22 17:48:00,91.2,78.7,30.06,SW,225,2.4,2.4,67,0.00,FEW,,0.00,WeatherDisplay:10.37,2013-08-22 21:48:00,
2013-08-22 17:53:00,91.2,78.7,30.06,South,180,2.3,2.3,67,0.00,FEW,,0.00,WeatherDisplay:10.37,2013-08-22 21:53:00,
2013-08-22 17:58:00,88.7,76.8,30.06,SW,225,3.8,3.8,68,0.00,FEW,,0.00,WeatherDisplay:10.37,2013-08-22 21:58:00,
2013-08-22 18:03:00,88.9,76.9,30.06,WSW,248,2.3,2.4,68,0.00,FEW,,0.00,WeatherDisplay:10.37,2013-08-22 22:03:00,
2013-08-22 18:08:00,88.5,76.6,30.06,WSW,248,4.6,4.6,68,0.00,FEW,,0.00,WeatherDisplay:10.37,2013-08-22 22:08:00,
2013-08-22 18:13:00,88.2,76.3,30.06,WSW,248,2.6,2.6,68,0.00,FEW,,0.00,WeatherDisplay:10.37,2013-08-22 22:13:00,
2013-08-22 18:18:00,87.4,75.6,30.06,SW,225,3.5,3.5,68,0.00,FEW,,0.00,WeatherDisplay:10.37,2013-08-22 22:18:00,
2013-08-22 18:23:00,88.2,76.3,30.06,SW,225,2.3,2.3,68,0.00,FEW,,0.00,WeatherDisplay:10.37,2013-08-22 22:23:00,
2013-08-22 18:28:00,88.7,76.8,30.06,SW,225,1.2,0.0,68,0.00,FEW,,0.00,WeatherDisplay:10.37,2013-08-22 22:28:00,
2013-08-22 18:33:00,87.3,75.4,30.03,West,270,3.5,3.5,68,0.00,FEW,,0.00,WeatherDisplay:10.37,2013-08-22 22:33:00,
2013-08-22 18:38:00,87.4,75.6,30.03,West,270,2.3,2.4,68,0.00,FEW,,0.00,WeatherDisplay:10.37,2013-08-22 22:38:00,
2013-08-22 18:43:00,87.6,75.7,30.03,West,270,2.3,2.3,68,0.00,FEW,,0.00,WeatherDisplay:10.37,2013-08-22 22:43:00,
2013-08-22 18:48:00,87.4,75.6,30.06,SW,225,1.6,1.6,68,0.00,FEW,,0.00,WeatherDisplay:10.37,2013-08-22 22:48:00,
2013-08-22 18:53:00,87.6,75.7,30.06,SW,225,1.2,0.0,68,0.00,FEW,,0.00,WeatherDisplay:10.37,2013-08-22 22:53:00,
2013-08-22 18:58:00,86.4,74.5,30.06,SW,225,2.3,2.3,68,0.00,FEW,,0.00,WeatherDisplay:10.37,2013-08-22 22:58:00,
2013-08-22 19:03:00,86.2,74.4,30.06,SW,225,2.3,2.3,68,0.00,FEW,,0.00,WeatherDisplay:10.37,2013-08-22 23:03:00,
2013-08-22 19:08:00,85.6,73.9,30.06,WSW,248,2.3,2.3,68,0.00,FEW,,0.00,WeatherDisplay:10.37,2013-08-22 23:08:00,
2013-08-22 19:13:00,85.5,73.7,30.06,SW,225,2.3,2.3,68,0.00,FEW,,0.00,WeatherDisplay:10.37,2013-08-22 23:13:00,
2013-08-22 19:18:00,84.7,73.0,30.06,WSW,248,2.3,2.3,68,0.00,FEW,,0.00,WeatherDisplay:10.37,2013-08-22 23:18:00,
2013-08-22 19:23:00,85.1,73.3,30.06,South,180,0.0,0.9,68,0.00,FEW,,0.00,WeatherDisplay:10.37,2013-08-22 23:23:00,
2013-08-22 19:28:00,84.9,73.2,30.06,South,180,0.0,0.0,68,0.00,FEW,,0.00,WeatherDisplay:10.37,2013-08-22 23:28:00,
2013-08-22 19:33:00,84.7,73.0,30.06,NE,45,0.0,0.0,68,0.00,FEW,,0.00,WeatherDisplay:10.37,2013-08-22 23:33:00,
2013-08-22 19:38:00,84.2,72.5,30.06,NE,45,1.2,1.2,68,0.00,FEW,,0.00,WeatherDisplay:10.37,2013-08-22 23:38:00,
2013-08-22 19:43:00,83.8,72.6,30.06,NE,45,0.0,0.0,69,0.00,FEW,,0.00,WeatherDisplay:10.37,2013-08-22 23:43:00,
2013-08-22 19:48:00,83.3,72.1,30.06,NE,45,0.0,0.0,69,0.00,FEW,,0.00,WeatherDisplay:10.37,2013-08-22 23:48:00,
2013-08-22 19:53:00,82.6,71.4,30.06,NE,45,0.0,0.0,69,0.00,FEW,,0.00,WeatherDisplay:10.37,2013-08-22 23:53:00,
2013-08-22 19:58:00,82.2,71.0,30.06,NE,45,0.0,0.0,69,0.00,FEW,,0.00,WeatherDisplay:10.37,2013-08-22 23:58:00,
2013-08-22 20:03:00,81.7,70.5,30.06,NE,45,0.0,0.0,69,0.00,FEW,,0.00,WeatherDisplay:10.37,2013-08-23 00:03:00,
2013-08-22 20:08:00,81.1,70.0,30.06,NE,45,0.0,0.0,69,0.00,FEW,,0.00,WeatherDisplay:10.37,2013-08-23 00:08:00,
2013-08-22 20:13:00,80.6,69.5,30.06,NE,45,0.0,0.0,69,0.00,FEW,,0.00,WeatherDisplay:10.37,2013-08-23 00:13:00,
2013-08-22 20:18:00,80.1,69.4,30.06,NE,45,0.0,0.0,70,0.00,FEW,,0.00,WeatherDisplay:10.37,2013-08-23 00:18:00,
2013-08-22 20:23:00,79.7,69.0,30.06,NE,45,0.0,0.0,70,0.00,FEW,,0.00,WeatherDisplay:10.37,2013-08-23 00:23:00,
2013-08-22 20:28:00,79.3,68.7,30.06,North,0,0.0,0.0,70,0.00,FEW,,0.00,WeatherDisplay:10.37,2013-08-23 00:28:00,
2013-08-22 20:33:00,79.0,68.4,30.06,North,0,0.0,0.0,70,0.00,FEW,,0.00,WeatherDisplay:10.37,2013-08-23 00:33:00,
2013-08-22 20:38:00,78.8,68.2,30.06,North,0,0.0,0.0,70,0.00,FEW,,0.00,WeatherDisplay:10.37,2013-08-23 00:38:00,
2013-08-22 20:43:00,78.3,67.7,30.06,NE,45,0.0,0.0,70,0.00,FEW,,0.00,WeatherDisplay:10.37,2013-08-23 00:43:00,
2013-08-22 20:48:00,77.9,67.3,30.06,NE,45,0.0,0.0,70,0.00,FEW,,0.00,WeatherDisplay:10.37,2013-08-23 00:48:00,
2013-08-22 20:53:00,77.7,67.2,30.06,NE,45,0.0,0.0,70,0.00,FEW,,0.00,WeatherDisplay:10.37,2013-08-23 00:53:00,
2013-08-22 20:58:00,77.4,66.8,30.06,NE,45,0.0,0.0,70,0.00,FEW,,0.00,WeatherDisplay:10.37,2013-08-23 00:58:00,
2013-08-22 21:03:00,76.8,66.3,30.03,West,270,0.0,0.0,70,0.00,FEW,,0.00,WeatherDisplay:10.37,2013-08-23 01:03:00,
2013-08-22 21:08:00,76.3,65.8,30.03,West,270,0.0,0.0,70,0.00,FEW,,0.00,WeatherDisplay:10.37,2013-08-23 01:08:00,
2013-08-22 21:13:00,76.1,65.6,30.03,West,270,0.0,0.0,70,0.00,FEW,,0.00,WeatherDisplay:10.37,2013-08-23 01:13:00,
2013-08-22 21:18:00,75.9,65.4,30.03,West,270,0.0,0.0,70,0.00,FEW,,0.00,WeatherDisplay:10.37,2013-08-23 01:18:00,
2013-08-22 21:23:00,75.9,65.4,30.03,West,270,0.0,0.0,70,0.00,FEW,,0.00,WeatherDisplay:10.37,2013-08-23 01:23:00,
2013-08-22 21:29:00,75.7,65.3,30.03,West,270,0.0,0.0,70,0.00,FEW,,0.00,WeatherDisplay:10.37,2013-08-23 01:29:00,
2013-08-22 21:33:00,70.5,40.8,30.06,NNE,22,0.0,2.0,34,0.00,CLR,CLR,0.00,WeatherDisplay:10.37,2013-08-23 01:33:00,
2013-08-22 21:34:00,75.7,65.3,30.06,West,270,0.0,0.0,70,0.00,FEW,,0.00,WeatherDisplay:10.37,2013-08-23 01:34:00,
2013-08-22 21:39:00,75.7,66.5,30.06,West,270,0.0,0.0,73,0.00,FEW,,0.00,WeatherDisplay:10.37,2013-08-23 01:39:00,
2013-08-22 21:44:00,75.7,66.5,30.06,West,270,0.0,0.0,73,0.00,FEW,,0.00,WeatherDisplay:10.37,2013-08-23 01:44:00,
2013-08-22 21:48:00,70.3,40.6,30.06,NNE,22,0.0,0.0,34,0.00,CLR,CLR,0.00,WeatherDisplay:10.37,2013-08-23 01:48:00,
2013-08-22 21:49:00,75.6,66.3,30.06,NE,45,0.0,0.0,73,0.00,FEW,,0.00,WeatherDisplay:10.37,2013-08-23 01:49:00,
2013-08-22 21:54:00,75.7,66.5,30.06,NE,45,1.2,0.0,73,0.00,FEW,,0.00,WeatherDisplay:10.37,2013-08-23 01:54:00,
2013-08-22 21:59:00,75.6,66.3,30.06,NE,45,0.0,0.0,73,0.00,FEW,,0.00,WeatherDisplay:10.37,2013-08-23 01:59:00,
2013-08-22 22:03:00,69.8,39.4,30.03,NNE,22,0.0,0.0,33,0.00,CLR,CLR,0.00,WeatherDisplay:10.37,2013-08-23 02:03:00,
2013-08-22 22:04:00,75.6,66.3,30.03,NE,45,2.3,2.3,73,0.00,FEW,,0.00,WeatherDisplay:10.37,2013-08-23 02:04:00,
2013-08-22 22:09:00,75.2,65.9,30.03,NE,45,2.3,2.3,73,0.00,FEW,,0.00,WeatherDisplay:10.37,2013-08-23 02:09:00,
2013-08-22 22:14:00,74.8,66.8,30.03,NE,45,2.4,2.4,76,0.00,FEW,,0.00,WeatherDisplay:10.37,2013-08-23 02:14:00,
2013-08-22 22:18:00,69.4,41.3,30.06,NNE,22,0.0,0.0,36,0.00,CLR,CLR,0.00,WeatherDisplay:10.37,2013-08-23 02:18:00,
2013-08-22 22:19:00,74.7,66.6,30.06,NNE,22,2.4,2.4,76,0.00,FEW,,0.00,WeatherDisplay:10.37,2013-08-23 02:19:00,
2013-08-22 22:24:00,74.7,66.6,30.06,NNE,22,0.0,0.0,76,0.00,FEW,,0.00,WeatherDisplay:10.37,2013-08-23 02:24:00,
2013-08-22 22:29:00,74.7,66.6,30.06,NNE,22,1.2,1.2,76,0.00,FEW,,0.00,WeatherDisplay:10.37,2013-08-23 02:29:00,
2013-08-22 22:33:00,69.4,41.3,30.03,NNE,22,0.0,0.0,36,0.00,CLR,CLR,0.00,WeatherDisplay:10.37,2013-08-23 02:33:00,
2013-08-22 22:34:00,74.7,66.6,30.06,NNE,22,0.0,0.0,76,0.00,BKN,,0.00,WeatherDisplay:10.37,2013-08-23 02:34:00,
2013-08-22 22:39:00,74.5,66.4,30.06,NNE,22,0.0,0.0,76,0.00,BKN,,0.00,WeatherDisplay:10.37,2013-08-23 02:39:00,
2013-08-22 22:44:00,73.9,66.3,30.06,West,270,0.0,0.0,77,0.00,BKN,,0.00,WeatherDisplay:10.37,2013-08-23 02:44:00,
2013-08-22 22:48:00,69.4,42.0,30.06,NNE,22,0.0,0.0,37,0.00,CLR,CLR,0.00,WeatherDisplay:10.37,2013-08-23 02:48:00,
2013-08-22 22:49:00,73.8,65.7,30.06,West,270,0.0,0.0,76,0.00,BKN,,0.00,WeatherDisplay:10.37,2013-08-23 02:49:00,
2013-08-22 22:54:00,73.8,65.7,30.06,North,0,0.0,0.0,76,0.00,BKN,,0.00,WeatherDisplay:10.37,2013-08-23 02:54:00,
2013-08-22 22:59:00,73.8,65.7,30.06,NNE,22,2.3,2.3,76,0.00,BKN,,0.00,WeatherDisplay:10.37,2013-08-23 02:59:00,
2013-08-22 23:03:00,69.1,41.0,30.03,NNE,22,0.0,0.0,36,0.00,CLR,CLR,0.00,WeatherDisplay:10.37,2013-08-23 03:03:00,
2013-08-22 23:04:00,73.8,65.7,30.06,NNE,22,1.2,1.2,76,0.00,BKN,,0.00,WeatherDisplay:10.37,2013-08-23 03:04:00,
2013-08-22 23:09:00,73.6,65.5,30.06,NNE,22,0.0,0.0,76,0.00,BKN,,0.00,WeatherDisplay:10.37,2013-08-23 03:09:00,
2013-08-22 23:14:00,73.4,65.4,30.06,NNE,22,0.0,0.0,76,0.00,BKN,,0.00,WeatherDisplay:10.37,2013-08-23 03:14:00,
2013-08-22 23:18:00,69.1,41.7,30.06,NNE,22,0.0,0.0,37,0.00,CLR,CLR,0.00,WeatherDisplay:10.37,2013-08-23 03:18:00,
2013-08-22 23:19:00,73.2,65.6,30.06,NNE,22,0.0,0.0,77,0.00,BKN,,0.00,WeatherDisplay:10.37,2013-08-23 03:19:00,
2013-08-22 23:24:00,73.0,65.4,30.06,NNE,22,0.0,0.0,77,0.00,BKN,,0.00,WeatherDisplay:10.37,2013-08-23 03:24:00,
2013-08-22 23:29:00,73.0,65.4,30.06,NNE,22,1.4,1.4,77,0.00,BKN,,0.00,WeatherDisplay:10.37,2013-08-23 03:29:00,
2013-08-22 23:33:00,69.1,42.4,30.06,NNE,22,0.0,0.0,38,0.00,CLR,CLR,0.00,WeatherDisplay:10.37,2013-08-23 03:33:00,
2013-08-22 23:34:00,73.0,65.4,30.06,NNE,22,0.0,0.0,77,0.00,CLR,,0.00,WeatherDisplay:10.37,2013-08-23 03:34:00,
2013-08-22 23:39:00,72.9,65.2,30.06,NE,45,1.4,0.0,77,0.00,CLR,,0.00,WeatherDisplay:10.37,2013-08-23 03:39:00,
2013-08-22 23:44:00,72.9,65.2,30.06,NE,45,2.3,2.3,77,0.00,CLR,,0.00,WeatherDisplay:10.37,2013-08-23 03:44:00,
2013-08-22 23:48:00,69.1,43.1,30.03,NNE,22,0.0,0.0,39,0.00,CLR,CLR,0.00,WeatherDisplay:10.37,2013-08-23 03:48:00,
2013-08-22 23:49:00,72.7,65.1,30.06,NE,45,0.0,0.0,77,0.00,CLR,,0.00,WeatherDisplay:10.37,2013-08-23 03:49:00,